This is the latest recevied weather packets stored in our database for station/object SQ2LXT-10. If no packets are shown the sender has not sent any weather packets the latest 10 day(s).
| Time | Temp. | Humidity | Pressure | Rain* | Wind** | Luminosity | Snow |
|---|---|---|---|---|---|---|---|
| 1777933841 | 15.56° C | 100% | 1006.4 hPa | - | - | - | - |
| 1777932941 | 15.56° C | 100% | 1006.3 hPa | - | - | - | - |
| 1777932041 | 16.11° C | 100% | 1006.4 hPa | - | - | - | - |
| 1777931141 | 16.67° C | 100% | 1006.3 hPa | - | - | - | - |
| 1777930245 | 16.67° C | 100% | 1006.2 hPa | - | - | - | - |
| 1777929341 | 16.67° C | 100% | 1006.2 hPa | - | - | - | - |
| 1777928441 | 16.67° C | 100% | 1006.2 hPa | - | - | - | - |
| 1777927546 | 17.22° C | 100% | 1006.2 hPa | - | - | - | - |
| 1777926641 | 15.56° C | 100% | 1006.1 hPa | - | - | - | - |
| 1777925741 | 16.11° C | 100% | 1006 hPa | - | - | - | - |
| 1777924841 | 16.11° C | 100% | 1006 hPa | - | - | - | - |
| 1777923941 | 16.67° C | 100% | 1006 hPa | - | - | - | - |
| 1777923041 | 17.22° C | 98% | 1005.9 hPa | - | - | - | - |
| 1777922141 | 18.33° C | 87% | 1005.9 hPa | - | - | - | - |
| 1777921241 | 18.89° C | 82% | 1005.9 hPa | - | - | - | - |
| 1777920340 | 19.44° C | 77% | 1005.9 hPa | - | - | - | - |
| 1777919440 | 20° C | 70% | 1005.8 hPa | - | - | - | - |
| 1777918540 | 20° C | 65% | 1005.7 hPa | - | - | - | - |
| 1777917640 | 20.56° C | 62% | 1005.6 hPa | - | - | - | - |
| 1777916740 | 20.56° C | 57% | 1005.5 hPa | - | - | - | - |
| 1777915840 | 21.11° C | 53% | 1005.5 hPa | - | - | - | - |
| 1777914940 | 21.11° C | 51% | 1005.4 hPa | - | - | - | - |
| 1777914040 | 21.67° C | 50% | 1005.5 hPa | - | - | - | - |
| 1777913140 | 22.22° C | 49% | 1005.6 hPa | - | - | - | - |
| 1777912240 | 22.78° C | 53% | 1005.5 hPa | - | - | - | - |
* Rain since midnight (hover to see other rain measurements)
** Current wind speed in m/s (hover to see current wind gust speed)